一网星座-0719星 (ONEWEB-0719)

导读

ONEWEB-0719是英国主导的OneWeb低轨宽带卫星星座中的卫星,于2023年1月10日发射入轨。OneWeb星座规划建成覆盖全球的低轨卫星通信网络,提供无缝高速宽带服务,一期已完成600余颗卫星部署,实现全球商业化运营。这颗卫星补充完善了星座组网,助力OneWeb实现全球泛在互联服务,推动卫星互联网全球化覆盖,提升偏远地区及移动场景下通信连接能力。

基本信息
目录编号:
55179
目录名称:
ONEWEB-0719
国际标识:
2023-004AR
轨道中心:
EARTH
卫星名称:
一网星座-0719星
卫星全名:
一网星座-0719星 (ONEWEB-0719)
卫星状态:
在轨 (已飞行1341 天)
发射日期:
2023-01-10 UTC
国别 :
英国 (GB)
星等 :
--
该卫星已列入 空间交会检测服务 Space Conjunction Data Service (SCDS) ,当前飞行风险评估等级: 无高风险
轨道信息
数据来源 国际轨道数据 AOE轨道数据
星历时间 2026-09-11T13:25:23+0800
22小时前
查看轨道信息
2026-09-06T03:00:00+0800
6天前
查看轨道信息
半长轴 7571.846km 7571.841km
偏心率 0.0002062 0.00021
轨道倾角 87.921° 87.921°
近地点辐角 100.298° 99.708°
升交点赤经 348.756° 349.832°
平近点角 259.838° 57.397°
近地点 1192.147km 1192.113km
远地点 1195.271km 1195.295km
周期 109.285分钟 109.285分钟
每日圈数 13.176502 13.176516
详细信息
平衡模式:
三轴稳定
覆盖范围:
全球
运营商:
一网卫星公司
运营商所在国:
英国
制造商(研发单位):
一网卫星公司
制造商所在国:
英国
使用方式:
暂无
卫星简介
OneWeb卫星网络由648颗重约125公斤的微型卫星组成,运行在1200公里的轨道上。 每颗卫星都能够提供至少每秒8千兆位的吞吐量,以使用其高吞吐量的Ku频段有效载荷为家庭和移动平台提供互联网接入。该卫星仍在工作。
2D轨道图
3D轨道图
轨道高度分析图
轨道倾角分析图
轨道综合分析图
查看轨道综合分析图
与全量物体交会距离演化趋势
与全量物体交会风险概率演化趋势